View from above orbital plane
|
View from above satellite
|
Ground track
|
The orbit data is extracted from the following two-line orbital elements,
1 23088U 94023B 21102.49721360 -.00000331 00000-0 -14719-3 0 9991
2 23088 70.9996 233.4437 0002622 185.9186 174.1906 14.14682165392605
Epoch (UTC): | 12 April 2021 11:55:59 |
Eccentricity: | 0.0002622 |
inclination: | 70.9996° |
perigee height: | 841 km |
apogee height: | 845 km |
right ascension of ascending node: | 233.4437° |
argument of perigee: | 185.9186° |
revolutions per day: | 14.14682165 |
mean anomaly at epoch: | 174.1906° |
orbit number at epoch: | 39260 |
The dashed part of the orbit path shows where the satellite is in the earth's shadow,
|
|